Home > Weather > Escondido > Past weeks

Flag for USA Past Weather in Escondido, California, USA — Yesterday and Last 2 Weeks

Now
66 °F

Clear.


Feels Like: 66 °F
Forecast: 65 / 89 °F
Wind: No wind

Location: Ramona Airport

Current Time: Jul 28, 2016 at 3:34:47 AM

Latest Report: Jul 28, 2016 at 2:53 AM


Visibility: 10 mi

Pressure: 29.87 "Hg

Humidity: 54%

Dew Point: 49 °F

Location of EscondidoLocation

Past Weather in Escondido — Graph

°F

Escondido Temperature Yesterday

Maximum temperature yesterday: 95 °F (at 12:53 PM)
Minimum temperature yesterday: 64 °F (at 4:53 AM)
Average temperature yesterday: 80 °F

High & Low Weather Summary for the Past Weeks

 TemperatureHumidityPressure
High104 °F (Jul 22, 12:53 PM)100% (Jul 14, 6:53 AM)30.03 "Hg (Jul 14, 6:53 AM)
Low50 °F (Jul 13, 5:53 AM)8% (Jul 22, 10:53 AM)29.79 "Hg (Jul 23, 3:53 AM)
Average76 °F53%29.91 "Hg
* Reported Jul 13 1:53 AM — Jul 28 1:53 AM, Escondido, Weather by CustomWeather, © 2016

Note: Actual official high and low records may vary slightly from our data, if they occured in-between our weather recording intervals... More about our weather records

Advertising

Escondido Weather History for the Previous 24 Hours

Scroll right to see more
 ConditionsComfort  
Time TempWeatherWind HumidityBarometerVisibility
1:53 AM
Thu, Jul 28
66 °FClear.No wind52%29.88 "Hg10 mi
12:53 AM68 °FClear.3 mph45%29.88 "Hg10 mi
11:53 PM
Wed, Jul 27
71 °FClear.No wind49%29.88 "Hg10 mi
10:53 PM72 °FClear.No wind44%29.89 "Hg10 mi
9:53 PM73 °FClear.No wind43%29.90 "Hg10 mi
8:53 PM76 °FClear.No wind39%29.88 "Hg10 mi
7:53 PM79 °FSunny.No wind36%29.88 "Hg10 mi
6:53 PM82 °FSunny.10 mph32%29.87 "Hg10 mi
5:53 PM89 °FSunny.9 mph27%29.87 "Hg10 mi
4:53 PM91 °FSunny.13 mph23%29.87 "Hg10 mi
3:53 PM93 °FSunny.10 mph24%29.87 "Hg10 mi
2:53 PM94 °FSunny.12 mph26%29.88 "Hg10 mi
1:53 PM95 °FSunny.9 mph29%29.89 "Hg10 mi
12:53 PM95 °FSunny.10 mph27%29.90 "Hg10 mi
11:53 AM93 °FSunny.9 mph26%29.90 "Hg10 mi
10:53 AM88 °FSunny.9 mph35%29.91 "Hg10 mi
9:53 AM87 °FSunny.8 mph35%29.90 "Hg10 mi
8:53 AM85 °FSunny.No wind31%29.90 "Hg10 mi
7:53 AM77 °FSunny.No wind45%29.89 "Hg10 mi
6:53 AM69 °FClear.No wind61%29.89 "Hg10 mi
5:53 AM65 °FClear.No wind63%29.87 "Hg10 mi
4:53 AM64 °FClear.No wind65%29.85 "Hg10 mi
3:53 AM66 °FClear.No wind63%29.85 "Hg10 mi
Weather by CustomWeather, © 2016

See weather overviewHow to use our weather pages